| time (UTC) | temp F | wind direction | speed MPH | gust MPH | rain 1hr in | rain 24hr in | rain mn in | humidity % | barometer mb |
| 20260905141521 | 53 | 41 | 0.0 | 1.0 | 0.03 | 0.04 | 0.04 | 87 | 1019.9 |
| 20260905140020 | 53 | 40 | 0.0 | 1.0 | 0.04 | 0.04 | 0.04 | 89 | 1018.9 |
| 20260905134516 | 53 | 18 | 0.0 | 1.0 | 0.04 | 0.04 | 0.04 | 87 | 1019.1 |
| 20260905133022 | 53 | 334 | 0.0 | 0.0 | 0.03 | 0.03 | 0.03 | 84 | 1020.0 |
| 20260905131510 | 54 | 302 | 0.0 | 0.0 | 0.01 | 0.01 | 0.01 | 80 | 1020.6 |
| 20260905130011 | 55 | 331 | 0.0 | 0.0 | 0.00 | 0.00 | 0.00 | 78 | 1019.5 |
| 20260905124504 | 55 | 359 | 0.0 | 0.0 | 0.00 | 0.00 | 0.00 | 79 | 1018.9 |
| 20260905123003 | 56 | 9 | 0.0 | 0.0 | 0.00 | 0.00 | 0.00 | 74 | 1018.5 |
| 20260905121501 | 56 | 328 | 0.0 | 2.0 | 0.00 | 0.00 | 0.00 | 74 | 1019.2 |
| 20260905120100 | 56 | 350 | 0.0 | 2.0 | 0.00 | 0.00 | 0.00 | 75 | 1018.6 |
| 20260905114600 | 57 | 312 | 0.0 | 0.0 | 0.00 | 0.00 | 0.00 | 71 | 1019.2 |
| 20260905113057 | 57 | 302 | 0.0 | 0.0 | 0.00 | 0.00 | 0.00 | 70 | 1018.9 |
| 20260905111642 | 56 | 331 | 0.0 | 0.0 | 0.00 | 0.00 | 0.00 | 72 | 1018.2 |
| 20260905110053 | 56 | 314 | 0.0 | 0.0 | 0.00 | 0.00 | 0.00 | 72 | 1018.3 |
| 20260905104559 | 56 | 328 | 0.0 | 2.0 | 0.00 | 0.00 | 0.00 | 71 | 1018.3 |
| 20260905103051 | 56 | 323 | 0.0 | 2.0 | 0.00 | 0.00 | 0.00 | 72 | 1017.8 |
| 20260905101559 | 55 | 330 | 0.0 | 0.0 | 0.00 | 0.00 | 0.00 | 74 | 1017.7 |
| 20260905100051 | 54 | 293 | 0.0 | 3.0 | 0.00 | 0.00 | 0.00 | 75 | 1017.9 |
| 20260905094547 | 54 | 280 | 0.0 | 1.0 | 0.00 | 0.00 | 0.00 | 76 | 1017.8 |
| 20260905093045 | 54 | 309 | 0.0 | 3.0 | 0.00 | 0.00 | 0.00 | 74 | 1017.5 |
| 20260905091542 | 55 | 302 | 0.0 | 2.0 | 0.00 | 0.00 | 0.00 | 72 | 1017.9 |
| 20260905090041 | 55 | 268 | 0.0 | 5.0 | 0.00 | 0.00 | 0.00 | 72 | 1018.0 |
| 20260905084548 | 55 | 287 | 0.0 | 3.0 | 0.00 | 0.00 | 0.00 | 72 | 1017.3 |
| 20260905083039 | 55 | 319 | 0.0 | 1.0 | 0.00 | 0.00 | 0.00 | 71 | 1017.3 |
| 20260905081537 | 55 | 325 | 0.0 | 1.0 | 0.00 | 0.00 | 0.00 | 69 | 1017.0 |
| 20260905080043 | 57 | 34 | 0.0 | 0.0 | 0.00 | 0.00 | 0.00 | 65 | 1016.6 |
| 20260905074538 | 56 | 53 | 0.0 | 1.0 | 0.00 | 0.00 | 0.00 | 69 | 1016.5 |
| 20260905073032 | 56 | 304 | 0.0 | 3.0 | 0.00 | 0.00 | 0.00 | 67 | 1017.8 |
| 20260905071533 | 56 | 290 | 0.0 | 0.0 | 0.00 | 0.00 | 0.00 | 66 | 1018.2 |
| 20260905070027 | 57 | 300 | 0.0 | 0.0 | 0.00 | 0.00 | 0.00 | 67 | 1018.1 |
| 20260905064523 | 57 | 1 | 0.0 | 0.0 | 0.00 | 0.00 | 0.00 | 62 | 1017.3 |
| 20260905063021 | 57 | 338 | 0.0 | 0.0 | 0.00 | 0.00 | 0.00 | 62 | 1017.1 |
| 20260905061525 | 58 | 11 | 0.0 | 0.0 | 0.00 | 0.00 | 0.00 | 62 | 1016.8 |
| 20260905060024 | 59 | 336 | 0.0 | 4.0 | 0.00 | 0.00 | 0.00 | 61 | 1017.1 |
| 20260905054513 | 59 | 334 | 0.0 | 0.0 | 0.00 | 0.00 | 0.00 | 57 | 1017.2 |
| 20260905053012 | 60 | 344 | 0.0 | 0.0 | 0.00 | 0.00 | 0.00 | 58 | 1016.9 |
| 20260905051510 | 61 | 333 | 0.0 | 0.0 | 0.00 | 0.00 | 0.00 | 57 | 1016.9 |
| 20260905050015 | 62 | 6 | 0.0 | 0.0 | 0.00 | 0.00 | 0.00 | 58 | 1016.5 |
| 20260905044511 | 62 | 337 | 0.0 | 0.0 | 0.00 | 0.00 | 0.00 | 57 | 1016.7 |
| 20260905043010 | 62 | 342 | 0.0 | 0.0 | 0.00 | 0.00 | 0.00 | 57 | 1016.7 |
| 20260905041509 | 63 | 4 | 0.0 | 0.0 | 0.00 | 0.00 | 0.00 | 55 | 1016.5 |
| 20260905040009 | 63 | 33 | 0.0 | 0.0 | 0.00 | 0.00 | 0.00 | 55 | 1016.4 |
| 20260905034505 | 63 | 3 | 0.0 | 0.0 | 0.00 | 0.00 | 0.00 | 57 | 1016.3 |
| 20260905033006 | 63 | 20 | 3.0 | 5.0 | 0.00 | 0.00 | 0.00 | 54 | 1015.7 |
| 20260905031612 | 64 | 8 | 4.0 | 8.0 | 0.00 | 0.00 | 0.00 | 47 | 1015.3 |
| 20260905030104 | 65 | 1 | 5.0 | 7.0 | 0.00 | 0.00 | 0.00 | 50 | 1015.3 |
| 20260905024558 | 65 | 6 | 2.0 | 4.0 | 0.00 | 0.00 | 0.00 | 46 | 1015.3 |
| 20260905023120 | 66 | 11 | 3.0 | 10.0 | 0.00 | 0.00 | 0.00 | 43 | 1014.8 |
| 20260905021555 | 66 | 27 | 5.0 | 9.0 | 0.00 | 0.00 | 0.00 | 42 | 1014.8 |
| 20260905020054 | 67 | 36 | 4.0 | 7.0 | 0.00 | 0.00 | 0.00 | 40 | 1014.7 |
| 20260905014553 | 68 | 11 | 7.0 | 12.0 | 0.00 | 0.00 | 0.00 | 38 | 1014.5 |
| 20260905013048 | 69 | 45 | 1.0 | 14.0 | 0.00 | 0.00 | 0.00 | 38 | 1013.7 |
| 20260905011548 | 69 | 37 | 8.0 | 17.0 | 0.00 | 0.00 | 0.00 | 37 | 1013.1 |
| 20260905010057 | 71 | 30 | 13.0 | 21.0 | 0.00 | 0.00 | 0.00 | 36 | 1013.1 |
| 20260905004545 | 71 | 30 | 15.0 | 25.0 | 0.00 | 0.00 | 0.00 | 35 | 1012.8 |
| 20260905003044 | 71 | 23 | 16.0 | 23.0 | 0.00 | 0.00 | 0.00 | 35 | 1012.7 |
| 20260905001551 | 72 | 5 | 12.0 | 22.0 | 0.00 | 0.00 | 0.00 | 36 | 1012.8 |
| 20260905000044 | 72 | 345 | 12.0 | 19.0 | 0.00 | 0.00 | 0.00 | 36 | 1013.0 |
| 20260904234541 | 74 | 3 | 11.0 | 16.0 | 0.00 | 0.00 | 0.00 | 35 | 1013.0 |
| 20260904233046 | 75 | 340 | 10.0 | 14.0 | 0.00 | 0.00 | 0.00 | 34 | 1013.1 |
| 20260904231541 | 74 | 20 | 14.0 | 23.0 | 0.00 | 0.00 | 0.00 | 33 | 1013.3 |
| 20260904230100 | 74 | 356 | 12.0 | 19.0 | 0.00 | 0.00 | 0.00 | 33 | 1013.1 |
| 20260904224535 | 74 | 333 | 11.0 | 19.0 | 0.00 | 0.00 | 0.00 | 35 | 1012.9 |
| 20260904223035 | 73 | 32 | 15.0 | 22.0 | 0.00 | 0.00 | 0.00 | 32 | 1012.9 |
| 20260904221532 | 73 | 340 | 13.0 | 18.0 | 0.00 | 0.00 | 0.00 | 33 | 1012.9 |
| 20260904220033 | 73 | 330 | 11.0 | 19.0 | 0.00 | 0.00 | 0.00 | 33 | 1012.7 |
| 20260904214529 | 73 | 17 | 10.0 | 15.0 | 0.00 | 0.00 | 0.00 | 35 | 1012.6 |
| 20260904213031 | 73 | 335 | 9.0 | 17.0 | 0.00 | 0.00 | 0.00 | 37 | 1012.6 |
| 20260904211527 | 72 | 344 | 8.0 | 15.0 | 0.00 | 0.00 | 0.00 | 36 | 1012.5 |
| 20260904210023 | 72 | 325 | 0.0 | 0.0 | 0.00 | 0.00 | 0.00 | 36 | 1012.4 |
| 20260904204530 | 72 | 339 | 0.0 | 0.0 | 0.00 | 0.00 | 0.00 | 36 | 1012.2 |
| 20260904203021 | 72 | 339 | 0.0 | 0.0 | 0.00 | 0.00 | 0.00 | 37 | 1012.1 |
| 20260904201518 | 71 | 8 | 0.0 | 1.0 | 0.00 | 0.00 | 0.00 | 39 | 1012.1 |
| 20260904200017 | 71 | 338 | 0.0 | 0.0 | 0.00 | 0.00 | 0.00 | 37 | 1012.2 |
| 20260904194514 | 71 | 332 | 0.0 | 7.0 | 0.00 | 0.00 | 0.00 | 38 | 1011.6 |
| 20260904193012 | 70 | 338 | 0.0 | 0.0 | 0.00 | 0.00 | 0.00 | 41 | 1011.4 |
| 20260904191508 | 70 | 330 | 0.0 | 2.0 | 0.00 | 0.00 | 0.00 | 39 | 1011.2 |
| 20260904190005 | 69 | 13 | 0.0 | 0.0 | 0.00 | 0.00 | 0.00 | 42 | 1011.0 |
| 20260904184601 | 68 | 332 | 0.0 | 0.0 | 0.00 | 0.00 | 0.00 | 45 | 1011.0 |
| 20260904183114 | 67 | 327 | 0.0 | 0.0 | 0.00 | 0.00 | 0.00 | 46 | 1010.8 |
| 20260904181555 | 65 | 333 | 0.0 | 0.0 | 0.00 | 0.00 | 0.00 | 46 | 1010.8 |
| 20260904180057 | 65 | 327 | 0.0 | 0.0 | 0.00 | 0.00 | 0.00 | 48 | 1010.7 |
| 20260904174549 | 63 | 338 | 0.0 | 0.0 | 0.00 | 0.00 | 0.00 | 47 | 1010.7 |
| 20260904173048 | 61 | 308 | 0.0 | 0.0 | 0.00 | 0.00 | 0.00 | 51 | 1010.9 |
| 20260904171603 | 60 | 318 | 0.0 | 0.0 | 0.00 | 0.00 | 0.00 | 53 | 1010.7 |
| 20260904170043 | 60 | 307 | 0.0 | 0.0 | 0.00 | 0.00 | 0.00 | 54 | 1010.6 |
| 20260904164547 | 59 | 321 | 0.0 | 0.0 | 0.00 | 0.00 | 0.00 | 59 | 1010.4 |
| 20260904163038 | 58 | 293 | 0.0 | 0.0 | 0.00 | 0.00 | 0.00 | 60 | 1010.1 |
| 20260904161546 | 58 | 324 | 0.0 | 0.0 | 0.00 | 0.00 | 0.00 | 60 | 1010.0 |
| 20260904160038 | 58 | 292 | 0.0 | 0.0 | 0.00 | 0.00 | 0.00 | 61 | 1009.8 |
| 20260904154536 | 58 | 313 | 0.0 | 0.0 | 0.00 | 0.00 | 0.00 | 61 | 1009.6 |
| 20260904153135 | 57 | 311 | 0.0 | 2.0 | 0.00 | 0.00 | 0.00 | 64 | 1009.6 |
| 20260904151539 | 56 | 314 | 0.0 | 0.0 | 0.00 | 0.00 | 0.00 | 65 | 1009.2 |
| 20260904150041 | 59 | 296 | 0.0 | 0.0 | 0.00 | 0.00 | 0.00 | 58 | 1008.9 |
| 20260904144533 | 60 | 127 | 0.0 | 0.0 | 0.00 | 0.00 | 0.00 | 52 | 1008.5 |
| 20260904143033 | 60 | 108 | 0.0 | 1.0 | 0.00 | 0.00 | 0.00 | 54 | 1008.0 |